GW2455 Weather Reports


Display with metric or nautical units.
time (UTC)temp
F
wind
direction
speed
MPH
gust
MPH
rain 1hr
in
rain 24hr
in
rain mn
in
humidity
%
barometer
mb
20260903233206 74 178 6.0 9.0 0.00 0.00 0.00 94 1021.8
20260903232704 74 191 5.0 6.0 0.00 0.00 0.00 94 1021.9
20260903232306 74 171 5.0 6.0 0.00 0.00 0.00 94 1022.0
20260903231204 74 163 6.0 7.0 0.00 0.00 0.00 94 1022.0
20260903230702 74 171 6.0 9.0 0.00 0.00 0.00 94 1022.1
20260903230203 74 154 7.0 10.0 0.00 0.00 0.00 94 1022.1
20260903225704 74 150 7.0 10.0 0.00 0.00 0.00 94 1022.1
20260903225306 74 151 6.0 10.0 0.00 0.00 0.00 94 1022.1
20260903224204 74 158 7.0 10.0 0.00 0.00 0.00 94 1022.1
20260903224019 74 160 6.0 9.0 0.00 0.00 0.00 94 1022.1
20260903223202 74 163 8.0 10.0 0.00 0.00 0.00 94 1022.1
20260903222703 74 170 8.0 10.0 0.00 0.00 0.00 93 1022.1
20260903222204 75 158 8.0 10.0 0.00 0.00 0.00 93 1022.0
20260903221703 75 163 6.0 9.0 0.00 0.00 0.00 93 1022.1
20260903221204 75 172 6.0 9.0 0.00 0.00 0.00 93 1022.1
20260903220702 75 171 6.0 9.0 0.00 0.00 0.00 92 1022.1
20260903220202 75 175 4.0 5.0 0.00 0.00 0.00 92 1022.0
20260903215702 75 253 3.0 4.0 0.00 0.00 0.00 91 1021.9
20260903215202 75 196 2.0 4.0 0.00 0.00 0.00 91 1021.9
20260903214658 75 198 2.0 5.0 0.00 0.00 0.00 91 1021.9
20260903214154 75 196 2.0 5.0 0.00 0.00 0.00 91 1021.7
20260903213651 75 226 3.0 5.0 0.00 0.00 0.00 91 1021.8
20260903213150 75 213 3.0 5.0 0.00 0.00 0.00 91 1021.7
20260903213000 75 202 4.0 5.0 0.00 0.00 0.00 91 1021.8
20260903212144 75 196 3.0 5.0 0.00 0.00 0.00 91 1021.7
20260903211949 75 196 2.0 4.0 0.00 0.00 0.00 91 1021.6
20260903211136 75 199 2.0 5.0 0.00 0.00 0.00 91 1021.5
20260903210634 75 208 3.0 6.0 0.00 0.00 0.00 91 1021.4
20260903210133 75 222 4.0 6.0 0.00 0.00 0.00 91 1021.3
20260903205630 75 225 4.0 5.0 0.00 0.00 0.00 91 1021.2
20260903205130 75 225 3.0 4.0 0.00 0.00 0.00 91 1021.2
20260903204630 75 225 4.0 5.0 0.00 0.00 0.00 91 1021.1
20260903204450 75 225 4.0 5.0 0.00 0.00 0.00 90 1021.1
20260903203742 75 225 4.0 5.0 0.00 0.00 0.00 90 1021.0
20260903202627 75 198 4.0 6.0 0.00 0.00 0.00 90 1021.1
20260903202123 75 227 5.0 6.0 0.00 0.00 0.00 90 1021.2
20260903201619 75 222 4.0 6.0 0.00 0.00 0.00 90 1021.1
20260903201117 75 187 4.0 6.0 0.00 0.00 0.00 90 1021.1
20260903200618 76 206 3.0 6.0 0.00 0.00 0.00 89 1021.0
20260903200112 76 229 4.0 6.0 0.00 0.00 0.00 89 1021.0
20260903195610 76 196 3.0 6.0 0.00 0.00 0.00 89 1020.9
20260903195108 76 196 3.0 6.0 0.00 0.00 0.00 89 1020.9
20260903194608 76 202 4.0 7.0 0.00 0.00 0.00 89 1020.9
20260903194108 76 189 4.0 9.0 0.00 0.00 0.00 89 1021.0
20260903193605 76 199 6.0 9.0 0.00 0.00 0.00 89 1021.0
20260903193106 76 196 4.0 7.0 0.00 0.00 0.00 89 1021.0
20260903192603 76 209 4.0 9.0 0.00 0.00 0.00 90 1021.0
20260903192104 76 189 6.0 9.0 0.00 0.00 0.00 90 1020.9
20260903191604 76 184 6.0 7.0 0.00 0.01 0.00 90 1020.9
20260903191103 76 208 3.0 4.0 0.00 0.01 0.00 90 1021.0
20260903190604 76 209 3.0 4.0 0.00 0.01 0.00 90 1021.0
20260903185602 76 208 3.0 4.0 0.00 0.01 0.00 89 1021.0
20260903185056 77 208 3.0 4.0 0.00 0.01 0.00 89 1021.0
20260903184558 77 208 3.0 5.0 0.00 0.01 0.00 89 1021.0
20260903184053 77 201 4.0 5.0 0.00 0.02 0.00 88 1021.1
20260903183645 77 199 3.0 5.0 0.00 0.02 0.00 88 1021.1
20260903182548 77 232 3.0 5.0 0.00 0.02 0.00 88 1021.1
20260903182049 77 205 3.0 5.0 0.00 0.02 0.00 88 1021.1
20260903181545 77 212 4.0 6.0 0.00 0.02 0.00 88 1021.1
20260903181045 77 215 5.0 6.0 0.00 0.02 0.00 88 1021.1
20260903180632 77 215 5.0 6.0 0.00 0.02 0.00 87 1021.1
20260903175532 78 209 4.0 6.0 0.00 0.02 0.00 87 1021.1
20260903175033 78 223 5.0 6.0 0.00 0.02 0.00 87 1021.1
20260903174534 78 209 4.0 6.0 0.00 0.02 0.00 86 1021.0
20260903174033 78 225 4.0 6.0 0.00 0.02 0.00 87 1021.0
20260903173531 78 247 5.0 7.0 0.00 0.02 0.00 87 1021.0
20260903173344 77 247 6.0 9.0 0.00 0.02 0.00 86 1020.9
20260903172524 78 242 6.0 9.0 0.00 0.02 0.00 86 1021.0
20260903172022 78 244 6.0 9.0 0.00 0.02 0.00 86 1021.0
20260903171522 78 229 6.0 7.0 0.00 0.02 0.00 86 1021.1
20260903171020 77 249 6.0 7.0 0.00 0.02 0.00 86 1021.1
20260903170838 77 256 5.0 6.0 0.00 0.02 0.00 86 1021.1
20260903170019 77 260 3.0 6.0 0.00 0.02 0.00 87 1021.2
20260903165519 77 219 5.0 7.0 0.00 0.02 0.00 86 1021.2
20260903165018 77 218 5.0 7.0 0.00 0.02 0.00 86 1021.2
20260903164518 77 225 5.0 7.0 0.00 0.02 0.00 86 1021.3
20260903164017 78 229 5.0 9.0 0.00 0.02 0.00 87 1021.4
20260903163516 77 220 5.0 10.0 0.00 0.02 0.00 87 1021.5
20260903163017 77 205 7.0 10.0 0.00 0.02 0.00 87 1021.5
20260903162520 77 233 5.0 9.0 0.00 0.02 0.00 88 1021.5
20260903162019 77 234 6.0 10.0 0.00 0.02 0.00 88 1021.6
20260903161518 77 203 5.0 10.0 0.00 0.02 0.00 88 1021.6
20260903161016 77 203 6.0 10.0 0.00 0.02 0.00 88 1021.7
20260903160515 77 213 7.0 10.0 0.00 0.02 0.00 88 1021.8
20260903160017 78 213 6.0 9.0 0.00 0.02 0.00 87 1021.8
20260903155514 78 205 5.0 7.0 0.00 0.02 0.00 88 1021.8
20260903155015 78 209 4.0 7.0 0.00 0.02 0.00 89 1021.8
20260903154512 77 199 4.0 7.0 0.00 0.02 0.00 89 1021.8
20260903154011 77 215 6.0 7.0 0.00 0.02 0.00 89 1021.9
20260903153510 78 225 4.0 7.0 0.00 0.02 0.00 90 1022.0
20260903153006 77 219 6.0 7.0 0.00 0.02 0.00 89 1021.9
20260903152505 78 198 4.0 6.0 0.00 0.02 0.00 91 1021.9
20260903152004 77 222 4.0 6.0 0.00 0.02 0.00 91 1022.0
20260903151459 77 222 4.0 7.0 0.00 0.02 0.00 91 1022.0
20260903151001 76 219 6.0 7.0 0.00 0.02 0.00 91 1022.1
20260903150459 76 209 6.0 7.0 0.00 0.02 0.00 90 1022.1
20260903150305 76 223 6.0 7.0 0.00 0.02 0.00 90 1022.2
20260903145452 76 218 6.0 7.0 0.00 0.02 0.00 90 1022.2
20260903144946 77 227 6.0 7.0 0.00 0.02 0.00 90 1022.2
20260903144443 76 220 5.0 7.0 0.00 0.02 0.00 90 1022.2
20260903143937 77 218 6.0 7.0 0.00 0.02 0.00 89 1022.3
20260903143440 77 216 5.0 6.0 0.00 0.02 0.00 89 1022.3
20260903142938 77 212 3.0 6.0 0.00 0.02 0.00 89 1022.3
20260903142435 77 216 4.0 6.0 0.00 0.02 0.00 89 1022.3
20260903141933 77 218 4.0 6.0 0.00 0.02 0.00 89 1022.2
20260903141754 77 216 5.0 6.0 0.00 0.02 0.00 89 1022.3
20260903140932 77 213 5.0 6.0 0.00 0.02 0.00 88 1022.3
20260903140435 77 192 2.0 5.0 0.00 0.02 0.00 89 1022.3
20260903135936 77 218 4.0 6.0 0.00 0.02 0.00 89 1022.5
20260903135434 76 215 3.0 7.0 0.00 0.02 0.00 89 1022.4
20260903134932 76 220 5.0 7.0 0.00 0.02 0.00 88 1022.5
20260903134431 77 223 4.0 6.0 0.00 0.02 0.00 88 1022.5
20260903133932 77 199 4.0 6.0 0.00 0.02 0.00 89 1022.5
20260903133432 77 218 3.0 6.0 0.00 0.02 0.00 90 1022.5
20260903132932 76 218 3.0 7.0 0.00 0.02 0.00 90 1022.5
20260903132433 76 205 5.0 7.0 0.00 0.02 0.00 91 1022.5
20260903132306 76 196 4.0 6.0 0.00 0.02 0.00 90 1022.5
20260903131431 76 187 5.0 7.0 0.00 0.02 0.00 90 1022.5
20260903130931 76 218 5.0 7.0 0.00 0.02 0.00 90 1022.5
20260903130432 76 202 4.0 7.0 0.00 0.02 0.00 90 1022.5
20260903130237 76 203 4.0 7.0 0.00 0.02 0.00 90 1022.5
20260903125432 76 203 5.0 7.0 0.00 0.02 0.00 91 1022.6
20260903125232 76 206 5.0 7.0 0.00 0.02 0.00 91 1022.7
20260903124428 76 187 6.0 7.0 0.00 0.02 0.00 91 1022.7
20260903124022 76 226 4.0 7.0 0.00 0.02 0.00 91 1022.7
20260903122914 75 182 5.0 6.0 0.00 0.02 0.00 92 1022.6
20260903122412 75 189 5.0 6.0 0.00 0.02 0.00 92 1022.6
20260903121922 75 189 5.0 7.0 0.00 0.02 0.00 92 1022.6
20260903121420 75 178 5.0 7.0 0.00 0.02 0.00 92 1022.6
20260903120912 75 184 6.0 7.0 0.00 0.02 0.00 93 1022.6
20260903120407 75 181 5.0 9.0 0.00 0.02 0.00 92 1022.5
20260903120251 75 188 6.0 9.0 0.00 0.02 0.00 92 1022.6
20260903115407 75 185 5.0 9.0 0.00 0.02 0.00 92 1022.6
20260903114904 75 181 6.0 9.0 0.00 0.02 0.00 93 1022.6
20260903114406 75 189 6.0 9.0 0.00 0.02 0.00 93 1022.6
20260903113903 75 172 5.0 6.0 0.00 0.02 0.00 93 1022.5
20260903113402 74 178 4.0 6.0 0.00 0.02 0.00 93 1022.6
20260903112903 75 194 5.0 7.0 0.00 0.02 0.00 93 1022.5
20260903112722 75 198 4.0 7.0 0.00 0.02 0.00 93 1022.5
20260903111903 75 191 6.0 7.0 0.00 0.02 0.00 93 1022.5
20260903111359 75 179 6.0 7.0 0.00 0.02 0.00 92 1022.5
20260903110850 75 179 5.0 6.0 0.00 0.02 0.00 92 1022.4
20260903110348 75 175 4.0 6.0 0.00 0.02 0.00 92 1022.3
20260903105848 74 191 4.0 5.0 0.00 0.02 0.00 92 1022.3
20260903105343 74 181 3.0 5.0 0.00 0.02 0.00 92 1022.4
20260903104844 74 179 3.0 5.0 0.00 0.02 0.00 93 1022.3
20260903104344 74 179 4.0 5.0 0.00 0.02 0.00 92 1022.3
20260903103842 74 174 4.0 5.0 0.00 0.02 0.00 93 1022.3
20260903103336 74 174 3.0 5.0 0.00 0.02 0.00 93 1022.3
20260903102833 74 184 3.0 5.0 0.00 0.02 0.00 93 1022.2
20260903102334 74 178 3.0 6.0 0.00 0.02 0.00 94 1022.3
20260903101826 74 167 4.0 6.0 0.00 0.02 0.00 94 1022.3
20260903101326 74 177 4.0 9.0 0.00 0.02 0.00 94 1022.3
20260903100821 74 172 6.0 10.0 0.00 0.02 0.00 94 1022.3
20260903100319 74 167 6.0 10.0 0.00 0.02 0.00 95 1022.3
20260903095816 73 153 8.0 10.0 0.00 0.02 0.00 95 1022.1
20260903095639 74 160 8.0 11.0 0.00 0.02 0.00 95 1022.1
20260903094814 73 151 9.0 11.0 0.00 0.02 0.00 95 1022.1
20260903094310 73 170 8.0 10.0 0.00 0.02 0.00 95 1022.1
20260903093810 73 165 9.0 10.0 0.00 0.02 0.00 95 1022.1
20260903093308 74 192 8.0 10.0 0.00 0.02 0.00 95 1022.2
20260903092803 73 170 8.0 11.0 0.00 0.02 0.00 96 1022.2
20260903092306 73 164 9.0 11.0 0.00 0.02 0.00 96 1022.2
20260903091802 73 164 9.0 11.0 0.00 0.02 0.00 96 1022.3
20260903091300 73 155 9.0 12.0 0.00 0.02 0.00 96 1022.3
20260903090752 73 178 9.0 12.0 0.00 0.02 0.00 96 1022.3
20260903090252 73 160 8.0 11.0 0.00 0.02 0.00 96 1022.3
20260903090126 73 175 7.0 13.0 0.00 0.02 0.00 96 1022.4
20260903085253 73 172 8.0 14.0 0.00 0.02 0.00 96 1022.4
20260903084751 73 171 11.0 14.0 0.00 0.02 0.00 96 1022.4
20260903084243 73 161 12.0 14.0 0.00 0.02 0.00 96 1022.4
20260903083739 73 167 9.0 13.0 0.00 0.02 0.00 96 1022.3
20260903083236 73 158 9.0 14.0 0.00 0.02 0.00 96 1022.2
20260903082734 73 172 9.0 14.0 0.00 0.02 0.00 96 1022.3
20260903082235 73 184 7.0 14.0 0.00 0.02 0.00 96 1022.2
20260903081731 73 155 11.0 14.0 0.00 0.02 0.00 96 1022.1
20260903081232 73 155 6.0 9.0 0.00 0.02 0.00 97 1022.1
20260903080733 73 23 0.0 1.0 0.00 0.02 0.00 97 1022.1
20260903080547 73 23 0.0 0.0 0.00 0.02 0.00 97 1022.1
20260903075732 73 23 0.0 0.0 0.00 0.02 0.00 97 1022.0
20260903075231 73 23 0.0 0.0 0.00 0.02 0.00 96 1021.9
20260903074730 73 23 0.0 0.0 0.00 0.02 0.00 97 1021.9
20260903074231 72 23 0.0 0.0 0.00 0.02 0.00 97 1022.0
20260903073727 72 23 0.0 0.0 0.00 0.02 0.00 96 1021.9
20260903073224 72 23 0.0 0.0 0.00 0.02 0.00 96 1021.9
20260903072723 72 23 0.0 0.0 0.00 0.02 0.00 96 1022.0
20260903072221 72 23 0.0 0.0 0.00 0.02 0.00 96 1021.9
20260903071720 72 23 0.0 0.0 0.00 0.02 0.00 96 1022.0
20260903071214 72 23 0.0 0.0 0.00 0.02 0.00 96 1021.9
20260903070716 72 23 0.0 0.0 0.00 0.02 0.00 96 1021.8
20260903070216 73 23 0.0 0.0 0.00 0.02 0.00 96 1021.8
20260903065709 73 23 0.0 0.0 0.00 0.02 0.00 96 1021.8
20260903065207 73 23 0.0 0.0 0.00 0.02 0.00 96 1021.9
20260903065021 73 23 0.0 0.0 0.00 0.02 0.00 96 1021.9
20260903064528 73 23 0.0 0.0 0.00 0.02 0.00 96 1021.9
20260903063706 73 23 0.0 0.0 0.00 0.02 0.00 96 1022.0
20260903063303 73 23 0.0 1.0 0.00 0.02 0.00 96 1022.0
20260903062205 73 23 1.0 1.0 0.00 0.02 0.00 96 1022.0
20260903062016 73 23 0.0 2.0 0.00 0.02 0.00 96 1022.1
20260903061204 73 23 1.0 2.0 0.00 0.02 0.00 96 1022.0
20260903060703 73 23 2.0 2.0 0.00 0.02 0.00 96 1022.0
20260903060202 73 23 2.0 3.0 0.00 0.02 0.00 96 1022.0
20260903055705 73 23 2.0 3.0 0.00 0.02 0.00 96 1022.1
20260903055515 73 23 2.0 3.0 0.00 0.02 0.00 96 1022.0
20260903054654 73 23 2.0 3.0 0.00 0.02 0.00 96 1022.1
20260903054509 73 23 2.0 3.0 0.00 0.02 0.00 96 1022.0
20260903053652 73 23 2.0 4.0 0.00 0.02 0.00 96 1022.0
20260903053149 73 23 3.0 4.0 0.00 0.02 0.00 96 1022.0
20260903052645 73 23 2.0 4.0 0.00 0.02 0.00 96 1022.0
20260903052147 73 23 3.0 4.0 0.00 0.02 0.00 96 1021.9
20260903051743 73 322 0.0 0.0 0.00 0.02 0.00 96 1022.0
20260903050732 73 322 0.0 0.0 0.00 0.02 0.00 96 1022.0
20260903045947 73 305 2.0 4.0 0.00 0.02 0.00 96 1022.0
20260903045133 73 256 1.0 3.0 0.00 0.02 0.00 96 1022.0
20260903044633 73 325 2.0 5.0 0.00 0.02 0.00 96 1022.0
20260903044132 73 325 2.0 5.0 0.00 0.02 0.00 96 1022.2
20260903043631 73 329 3.0 4.0 0.00 0.02 0.00 97 1022.2
20260903043133 73 218 0.0 1.0 0.00 0.02 0.00 97 1022.2
20260903042632 73 220 0.0 4.0 0.00 0.02 0.00 97 1022.2
20260903042131 73 218 2.0 4.0 0.00 0.02 0.00 97 1022.2
20260903041631 73 184 2.0 5.0 0.00 0.02 0.00 97 1022.3
20260903041131 73 188 4.0 5.0 0.00 0.02 0.00 96 1022.2
20260903040634 73 237 2.0 5.0 0.00 0.02 0.00 97 1022.2
20260903040132 73 302 2.0 5.0 0.00 0.02 0.00 97 1022.3
20260903035633 73 323 3.0 5.0 0.00 0.02 0.00 97 1022.3
20260903035133 73 309 3.0 4.0 0.00 0.02 0.00 97 1022.3
20260903034949 73 332 3.0 4.0 0.00 0.02 0.00 97 1022.3
20260903034128 73 332 3.0 3.0 0.00 0.02 0.00 97 1022.4
20260903033623 73 332 3.0 3.0 0.00 0.02 0.00 97 1022.4
20260903033122 73 332 2.0 3.0 0.00 0.02 0.00 97 1022.5
20260903032619 73 333 2.0 3.0 0.00 0.02 0.00 96 1022.5
20260903032116 74 333 2.0 4.0 0.00 0.02 0.00 96 1022.5
20260903031615 73 332 2.0 4.0 0.00 0.02 0.00 96 1022.6
20260903031114 73 332 4.0 4.0 0.00 0.02 0.00 96 1022.6
20260903030612 74 332 3.0 4.0 0.00 0.02 0.00 96 1022.7
20260903030107 73 332 2.0 3.0 0.00 0.02 0.00 96 1022.6
20260903025604 74 333 2.0 3.0 0.00 0.02 0.00 96 1022.6
20260903025104 73 332 2.0 3.0 0.00 0.02 0.00 96 1022.6
20260903024602 73 332 2.0 4.0 0.00 0.02 0.00 96 1022.6
20260903024102 73 332 3.0 4.0 0.00 0.02 0.00 96 1022.6
20260903023604 73 344 2.0 4.0 0.00 0.02 0.00 96 1022.7
20260903023415 73 6 3.0 3.0 0.00 0.02 0.00 96 1022.7
20260903022604 74 8 2.0 3.0 0.00 0.02 0.00 96 1022.8
20260903022103 73 8 0.0 0.0 0.00 0.02 0.00 96 1022.8
20260903021604 73 8 0.0 0.0 0.00 0.02 0.00 96 1022.8
20260903021102 73 8 0.0 0.0 0.00 0.02 0.00 96 1022.9
20260903020603 73 8 0.0 0.0 0.00 0.02 0.00 96 1023.0
20260903015600 73 8 1.0 2.0 0.00 0.02 0.00 96 1023.0
20260903015104 73 8 0.0 0.0 0.00 0.02 0.00 96 1023.0
20260903014920 73 8 0.0 0.0 0.00 0.02 0.00 97 1023.1
20260903014050 73 8 0.0 0.0 0.00 0.02 0.00 97 1023.0
20260903013546 73 8 0.0 0.0 0.00 0.02 0.00 97 1023.0
20260903013400 73 8 0.0 0.0 0.00 0.02 0.00 96 1023.1
20260903012544 73 8 0.0 0.0 0.00 0.02 0.00 97 1023.2
20260903012355 73 8 0.0 2.0 0.00 0.02 0.00 96 1023.2
20260903011538 73 8 0.0 2.0 0.00 0.02 0.00 96 1023.2
20260903011037 73 8 1.0 3.0 0.00 0.02 0.00 96 1023.2
20260903010533 73 8 2.0 4.0 0.00 0.02 0.00 96 1023.3
20260903010033 73 8 3.0 4.0 0.00 0.02 0.00 96 1023.3
20260903005532 72 8 3.0 3.0 0.00 0.02 0.00 96 1023.3
20260903005032 72 8 2.0 3.0 0.00 0.02 0.00 96 1023.3
20260903004532 73 8 2.0 3.0 0.00 0.02 0.00 96 1023.3
20260903004345 73 8 2.0 3.0 0.00 0.02 0.00 96 1023.4
20260903003531 73 8 2.0 3.0 0.00 0.02 0.00 96 1023.4
20260903003030 73 8 3.0 3.0 0.00 0.02 0.00 96 1023.4
20260903002527 73 8 2.0 4.0 0.00 0.02 0.00 96 1023.4
20260903002026 73 8 3.0 4.0 0.00 0.02 0.00 96 1023.4
20260903001523 73 8 2.0 3.0 0.00 0.02 0.00 96 1023.5
20260903001019 73 8 1.0 3.0 0.00 0.02 0.00 96 1023.6
20260903000516 73 8 0.0 3.0 0.00 0.02 0.00 97 1023.6
20260903000018 73 8 1.0 3.0 0.00 0.02 0.00 96 1023.6
20260902235514 73 8 2.0 3.0 0.00 0.02 0.02 97 1023.6
20260902235325 73 8 2.0 3.0 0.00 0.02 0.02 97 1023.6
20260902234521 72 8 2.0 4.0 0.00 0.02 0.02 97 1023.6
20260902234005 72 8 2.0 4.0 0.00 0.02 0.02 97 1023.6
20260902233823 72 8 3.0 4.0 0.00 0.02 0.02 96 1023.7